Location: Góry Miechowskie
(50.3599°N, 20.1803°E)
Time: 11:44:11
(UTC+00:00)

Cosmos 1943 - Pass Details

Date: 15 June 2024
Orbit: 834 x 847 km, 71.0° (Epoch: 16 July)

Event Time Altitude Azimuth Distance (km) Brightness Sun altitude
Rises 00:02:22 0° 331° (NNW) 3,396 7.0 -14.1°
Reaches altitude 10° 00:04:51 10° 334° (NNW) 2,457 6.3 -14.0°
Maximum altitude 00:10:28 69° 58° (ENE) 894 3.5 -13.6°
Drops below altitude 10° 00:16:03 10° 142° (SE) 2,441 5.3 -13.3°
Sets 00:18:29 0° 145° (SE) 3,372 6.0 -13.2°
